KC3ROS Weather Reports


Display with metric or nautical units.
time (UTC)temp
F
wind
direction
speed
MPH
gust
MPH
rain 1hr
in
rain 24hr
in
rain mn
in
humidity
%
barometer
mb
20260510140237 51 38 1.0 3.0 0.02 0.17 0.17 99 1014.0
20260510135732 51 18 1.0 3.0 0.00 0.17 0.17 99 1013.9
20260510135228 51 343 1.0 2.0 0.00 0.17 0.17 99 1014.0
20260510134726 51 21 1.0 3.0 0.00 0.17 0.17 99 1014.2
20260510134223 51 355 2.0 4.0 0.00 0.17 0.17 99 1013.8
20260510133718 51 319 1.0 3.0 0.00 0.17 0.17 99 1013.8
20260510133215 51 344 0.0 2.0 0.00 0.17 0.17 99 1013.6
20260510132711 52 0 1.0 2.0 0.02 0.17 0.17 99 1013.5
20260510132208 52 31 0.0 2.0 0.02 0.17 0.17 99 1013.0
20260510131705 51 42 0.0 2.0 0.00 0.17 0.17 99 1012.7
20260510131203 52 31 1.0 2.0 0.02 0.17 0.17 99 1013.3
20260510130653 52 320 3.0 5.0 0.02 0.16 0.16 99 1013.4
20260510130151 52 345 1.0 3.0 0.02 0.16 0.16 99 1013.4
20260510125647 52 145 1.0 3.0 0.00 0.16 0.16 99 1013.5
20260510125143 52 238 4.0 5.0 0.00 0.16 0.16 99 1013.3
20260510124641 52 338 0.0 5.0 0.00 0.16 0.16 99 1013.1
20260510124137 52 231 2.0 3.0 0.00 0.16 0.16 99 1012.8
20260510123632 52 25 0.0 1.0 0.00 0.16 0.16 99 1012.7
20260510123129 52 27 0.0 1.0 0.00 0.16 0.16 99 1012.6
20260510122625 52 342 2.0 2.0 0.00 0.16 0.16 99 1012.6
20260510122121 52 44 0.0 2.0 0.00 0.16 0.16 99 1012.3
20260510121618 52 62 0.0 2.0 0.00 0.16 0.16 99 1012.3
20260510121115 52 55 0.0 3.0 0.00 0.16 0.16 99 1012.3
20260510120613 52 347 0.0 1.0 0.00 0.16 0.16 99 1012.1
20260510120108 52 339 1.0 2.0 0.00 0.16 0.16 99 1012.0
20260510115605 52 333 2.0 3.0 0.00 0.16 0.16 99 1012.1
20260510115103 52 19 1.0 3.0 0.00 0.16 0.16 99 1011.6
20260510114558 52 9 1.0 3.0 0.00 0.16 0.16 99 1011.7
20260510114054 52 260 0.0 2.0 0.00 0.16 0.16 99 1011.5
20260510113549 52 0 2.0 3.0 0.00 0.16 0.16 99 1011.5
20260510113048 52 274 1.0 3.0 0.00 0.16 0.16 99 1011.5
20260510112544 52 6 0.0 2.0 0.00 0.16 0.16 99 1011.4
20260510112040 52 320 0.0 3.0 0.00 0.16 0.16 99 1011.0
20260510111537 52 322 1.0 3.0 0.00 0.16 0.16 99 1010.9
20260510111033 52 353 2.0 3.0 0.00 0.16 0.16 99 1010.8
20260510110529 52 13 1.0 3.0 0.00 0.16 0.16 99 1010.9
20260510110026 51 205 0.0 2.0 0.00 0.16 0.16 99 1011.0
20260510105521 51 157 0.0 1.0 0.00 0.16 0.16 99 1010.5
20260510105016 51 42 0.0 2.0 0.00 0.16 0.16 99 1010.6
20260510104513 52 28 1.0 2.0 0.00 0.16 0.16 99 1010.6
20260510104009 51 38 0.0 1.0 0.00 0.16 0.16 99 1010.5
20260510103507 51 50 0.0 1.0 0.00 0.16 0.16 99 1010.6
20260510103003 52 48 0.0 2.0 0.00 0.16 0.16 99 1010.5
20260510102458 51 337 0.0 1.0 0.00 0.16 0.16 99 1010.2
20260510101955 52 75 0.0 1.0 0.00 0.16 0.16 99 1010.0
20260510101453 52 269 0.0 1.0 0.00 0.16 0.16 99 1009.9
20260510100951 52 202 0.0 1.0 0.00 0.16 0.16 99 1009.8
20260510100447 51 209 0.0 1.0 0.00 0.16 0.16 99 1009.7
20260510095943 51 25 0.0 1.0 0.00 0.16 0.16 99 1009.6
20260510095439 51 8 0.0 3.0 0.00 0.16 0.16 99 1009.5
20260510094938 52 32 0.0 2.0 0.00 0.16 0.16 99 1009.4
20260510094433 52 32 0.0 2.0 0.00 0.16 0.16 99 1009.3
20260510093929 52 107 0.0 2.0 0.00 0.16 0.16 99 1009.3
20260510093424 52 89 0.0 2.0 0.00 0.16 0.16 99 1009.3
20260510092921 52 129 0.0 1.0 0.00 0.16 0.16 99 1009.5
20260510092418 52 89 0.0 2.0 0.00 0.16 0.16 99 1009.4
20260510091913 52 130 0.0 2.0 0.00 0.16 0.16 99 1009.3
20260510091410 52 32 0.0 2.0 0.00 0.16 0.16 99 1009.2
20260510090906 52 297 0.0 1.0 0.00 0.16 0.16 99 1009.2
20260510090402 53 69 0.0 2.0 0.00 0.16 0.16 99 1009.3
20260510085858 53 63 1.0 2.0 0.00 0.16 0.16 99 1009.1
20260510085354 52 266 1.0 2.0 0.00 0.16 0.16 99 1009.2
20260510084844 52 343 2.0 2.0 0.00 0.16 0.16 99 1009.1
20260510084342 53 28 0.0 3.0 0.00 0.16 0.16 99 1008.9
20260510083838 53 230 0.0 2.0 0.00 0.16 0.16 99 1008.9
20260510083335 53 204 0.0 4.0 0.00 0.16 0.16 99 1009.0
20260510082830 53 218 2.0 4.0 0.00 0.16 0.16 99 1008.9
20260510082328 53 254 1.0 5.0 0.00 0.16 0.16 99 1008.8
20260510081826 53 245 2.0 5.0 0.00 0.16 0.16 99 1008.7
20260510081323 53 204 0.0 4.0 0.00 0.16 0.16 99 1008.6
20260510080819 53 230 2.0 4.0 0.00 0.16 0.16 99 1008.7
20260510080313 53 154 0.0 3.0 0.00 0.16 0.16 99 1008.7
20260510075811 53 175 0.0 2.0 0.00 0.16 0.16 99 1008.7
20260510075308 53 154 0.0 3.0 0.00 0.16 0.16 99 1008.5
20260510074805 53 225 0.0 2.0 0.00 0.16 0.16 99 1008.5
20260510074302 53 140 0.0 2.0 0.00 0.16 0.16 99 1008.6
20260510073758 53 208 2.0 3.0 0.00 0.16 0.16 99 1008.2
20260510073254 53 185 0.0 5.0 0.00 0.16 0.16 99 1008.2
20260510072750 53 154 0.0 2.0 0.00 0.16 0.16 99 1008.0
20260510072247 53 190 1.0 2.0 0.00 0.16 0.16 99 1008.1
20260510071743 53 235 0.0 2.0 0.00 0.16 0.16 99 1008.1
20260510071239 53 202 0.0 2.0 0.00 0.16 0.16 99 1008.1
20260510070738 53 226 1.0 5.0 0.00 0.16 0.16 99 1008.1
20260510070235 53 225 0.0 3.0 0.00 0.16 0.16 99 1007.9
20260510065729 53 166 1.0 3.0 0.00 0.16 0.16 99 1008.0
20260510065226 53 214 1.0 6.0 0.00 0.16 0.16 99 1008.2
20260510064723 53 218 2.0 4.0 0.05 0.16 0.16 99 1008.4
20260510064221 53 220 3.0 5.0 0.05 0.15 0.15 99 1008.1
20260510063717 53 208 4.0 6.0 0.02 0.15 0.15 99 1008.9
20260510063213 53 135 0.0 4.0 0.00 0.15 0.15 99 1008.8
20260510062710 53 176 1.0 3.0 0.00 0.15 0.15 99 1009.0
20260510062206 52 222 1.0 3.0 0.00 0.15 0.15 99 1009.0
20260510061701 52 214 0.0 1.0 0.00 0.15 0.15 99 1008.7
20260510061158 52 205 0.0 2.0 0.00 0.15 0.15 99 1008.6
20260510060655 52 140 0.0 2.0 0.00 0.15 0.15 99 1008.8
20260510060151 52 62 0.0 0.0 0.00 0.15 0.15 99 1008.8
20260510055648 53 224 0.0 0.0 0.00 0.15 0.15 99 1008.9
20260510055146 53 86 2.0 3.0 0.00 0.15 0.15 99 1008.8
20260510054641 53 217 1.0 2.0 0.00 0.15 0.15 99 1009.0
20260510054137 53 29 0.0 2.0 0.00 0.15 0.15 99 1009.2
20260510053636 53 321 0.0 3.0 0.00 0.15 0.15 99 1008.9
20260510053133 53 219 2.0 4.0 0.00 0.15 0.15 99 1008.5
20260510052629 53 157 0.0 2.0 0.07 0.15 0.15 99 1008.4
20260510052125 53 245 2.0 2.0 0.26 0.14 0.14 99 1008.4
20260510051621 54 138 1.0 1.0 0.38 0.13 0.13 99 1008.9
20260510051118 53 316 1.0 3.0 0.12 0.09 0.09 99 1009.9
20260510050615 53 9 1.0 3.0 0.00 0.07 0.07 99 1009.7
20260510050112 53 89 0.0 3.0 0.00 0.07 0.07 99 1009.5
20260510045609 53 202 0.0 3.0 0.00 0.07 0.07 99 1009.6
20260510045105 53 148 1.0 3.0 0.09 0.07 0.07 99 1009.4
20260510044602 53 285 0.0 2.0 0.12 0.07 0.07 99 1009.4
20260510044059 53 129 0.0 2.0 0.12 0.06 0.06 99 1009.5
20260510043554 53 218 0.0 1.0 0.09 0.04 0.04 99 1009.4
20260510043051 53 32 0.0 1.0 0.05 0.03 0.03 99 1009.3
20260510042545 53 154 0.0 3.0 0.07 0.02 0.02 99 1009.1
20260510042040 53 120 3.0 3.0 0.09 0.02 0.02 99 1009.0
20260510041537 53 142 0.0 1.0 0.02 0.01 0.01 99 1009.1
20260510041035 53 195 0.0 2.0 0.02 0.00 0.00 99 1008.8
20260510040531 53 202 0.0 3.0 0.00 0.00 0.00 99 1008.5
20260510040027 53 57 0.0 3.0 0.00 0.34 0.34 99 1008.1
20260510035524 53 154 0.0 2.0 0.00 0.34 0.34 99 1008.6
20260510035023 53 205 0.0 1.0 0.00 0.34 0.34 99 1008.2
20260510034522 52 216 1.0 2.0 0.00 0.34 0.34 99 1007.8
20260510034018 52 242 0.0 1.0 0.00 0.34 0.34 99 1007.9
20260510033514 53 234 1.0 2.0 0.00 0.34 0.34 99 1008.1
20260510033012 53 195 0.0 2.0 0.00 0.34 0.34 99 1008.2
20260510032509 53 135 0.0 6.0 0.00 0.34 0.34 99 1008.4
20260510032009 53 230 1.0 1.0 0.00 0.34 0.34 99 1008.4
20260510031504 53 224 0.0 1.0 0.00 0.34 0.34 99 1008.1
20260510031001 53 186 0.0 1.0 0.00 0.34 0.34 99 1008.2
20260510030456 53 89 0.0 1.0 0.00 0.34 0.34 99 1008.5
20260510025953 53 60 0.0 1.0 0.02 0.34 0.34 99 1008.6
20260510025450 53 297 0.0 1.0 0.02 0.34 0.34 99 1008.5
20260510024948 53 210 1.0 2.0 0.02 0.34 0.34 99 1008.7
20260510024444 53 143 0.0 3.0 0.09 0.33 0.33 99 1008.6
20260510023940 53 202 0.0 7.0 0.12 0.33 0.33 99 1008.6
20260510023437 53 220 2.0 3.0 0.17 0.31 0.31 99 1008.8
20260510022934 53 128 1.0 4.0 0.21 0.30 0.30 98 1009.2
20260510022433 53 92 2.0 2.0 0.19 0.28 0.28 98 1009.6
20260510021932 53 25 0.0 1.0 0.24 0.27 0.27 98 1009.6
20260510021430 53 75 0.0 2.0 0.19 0.24 0.24 98 1009.5
20260510020926 53 43 1.0 2.0 0.28 0.23 0.23 97 1009.7
20260510020421 53 32 0.0 3.0 0.35 0.20 0.20 97 1009.5
20260510015917 53 30 2.0 4.0 0.24 0.17 0.17 96 1009.5
20260510015413 53 8 4.0 5.0 0.19 0.15 0.15 95 1009.2
20260510014908 54 31 2.0 7.0 0.24 0.13 0.13 94 1009.4
20260510014406 55 2 4.0 9.0 0.12 0.11 0.11 89 1009.2
20260510013903 56 33 3.0 7.0 0.00 0.09 0.09 83 1008.7
20260510013357 58 337 6.0 11.0 0.00 0.09 0.09 80 1008.5
20260510012852 61 334 9.0 9.0 0.00 0.09 0.09 75 1008.0
20260510012348 61 320 1.0 4.0 0.00 0.09 0.09 70 1006.6
20260510011843 61 221 1.0 3.0 0.00 0.09 0.09 70 1006.5
20260510011338 61 4 0.0 4.0 0.00 0.09 0.09 69 1006.6
20260510010835 61 224 0.0 9.0 0.00 0.09 0.09 69 1006.3
20260510010332 61 157 0.0 8.0 0.00 0.09 0.09 69 1006.3
20260510005828 61 156 2.0 5.0 0.00 0.09 0.09 69 1006.3
20260510005325 61 211 2.0 7.0 0.00 0.09 0.09 69 1006.3
20260510004823 61 224 2.0 4.0 0.00 0.09 0.09 69 1006.4
20260510004320 62 227 2.0 5.0 0.00 0.09 0.09 68 1006.2
20260510003818 62 118 0.0 3.0 0.00 0.09 0.09 69 1006.2
20260510003315 62 138 2.0 4.0 0.00 0.09 0.09 67 1006.4
20260510002813 62 244 0.0 6.0 0.00 0.09 0.09 67 1006.3
20260510002311 62 253 1.0 6.0 0.00 0.09 0.09 67 1006.3
20260510001807 62 237 2.0 3.0 0.00 0.09 0.09 67 1006.2
20260510001305 63 178 2.0 5.0 0.00 0.09 0.09 66 1006.1
20260510000801 63 238 0.0 7.0 0.00 0.09 0.09 65 1005.9
20260510000259 63 89 0.0 5.0 0.00 0.09 0.09 65 1005.9
20260509235756 64 103 1.0 5.0 0.00 0.09 0.09 63 1005.8
20260509235252 64 184 2.0 8.0 0.00 0.09 0.09 63 1006.0
20260509234747 64 221 5.0 7.0 0.00 0.09 0.09 62 1005.9
20260509234245 64 148 3.0 6.0 0.00 0.09 0.09 64 1006.0
20260509233743 64 163 2.0 5.0 0.00 0.09 0.09 64 1005.7
20260509233240 64 132 0.0 4.0 0.00 0.09 0.09 63 1005.9
20260509232736 65 116 1.0 8.0 0.00 0.09 0.09 63 1005.6
20260509232233 65 222 3.0 6.0 0.00 0.09 0.09 64 1005.7
20260509231730 65 230 9.0 12.0 0.00 0.09 0.09 61 1005.7
20260509231227 66 104 2.0 8.0 0.00 0.09 0.09 61 1005.6
20260509230725 66 186 3.0 9.0 0.00 0.09 0.09 60 1005.6
20260509230221 67 186 2.0 8.0 0.00 0.09 0.09 59 1005.7
20260509225716 67 202 3.0 5.0 0.00 0.09 0.09 58 1005.7
20260509225212 68 263 4.0 9.0 0.00 0.09 0.09 57 1005.6
20260509224708 67 56 1.0 16.0 0.00 0.09 0.09 57 1005.8
20260509224205 68 231 1.0 8.0 0.00 0.09 0.09 60 1005.7
20260509223702 68 124 3.0 10.0 0.00 0.09 0.09 58 1005.4
20260509223154 68 200 10.0 18.0 0.00 0.09 0.09 57 1005.3
20260509222651 68 255 6.0 9.0 0.00 0.09 0.09 57 1005.2
20260509222146 68 213 4.0 9.0 0.00 0.09 0.09 58 1005.2
20260509221642 68 118 3.0 9.0 0.00 0.09 0.09 57 1005.3
20260509221138 68 180 2.0 10.0 0.00 0.09 0.09 56 1005.4
20260509220634 68 263 3.0 9.0 0.00 0.09 0.09 58 1005.3
20260509220130 68 200 3.0 13.0 0.00 0.09 0.09 57 1005.4
20260509215627 68 108 3.0 9.0 0.00 0.09 0.09 59 1005.7
20260509215123 68 217 5.0 7.0 0.00 0.09 0.09 60 1005.8
20260509214621 69 213 6.0 9.0 0.00 0.09 0.09 56 1005.8
20260509214117 68 129 3.0 11.0 0.00 0.09 0.09 60 1005.6
20260509213613 68 113 2.0 10.0 0.00 0.09 0.09 58 1005.6
20260509213110 68 155 0.0 11.0 0.00 0.09 0.09 58 1005.7
20260509212607 69 243 3.0 8.0 0.00 0.09 0.09 56 1005.7
20260509212104 68 227 3.0 6.0 0.00 0.09 0.09 59 1005.9
20260509211559 67 225 10.0 11.0 0.00 0.09 0.09 61 1005.7
20260509211056 68 266 5.0 12.0 0.00 0.09 0.09 58 1005.7
20260509210553 67 239 2.0 8.0 0.00 0.09 0.09 62 1005.9
20260509210050 67 172 4.0 11.0 0.00 0.09 0.09 62 1006.2
20260509205544 68 347 2.0 7.0 0.00 0.09 0.09 62 1006.0
20260509205040 67 302 0.0 4.0 0.00 0.09 0.09 67 1006.1
20260509204536 65 198 1.0 10.0 0.00 0.09 0.09 65 1006.4
20260509204032 64 222 7.0 9.0 0.00 0.09 0.09 65 1006.2
20260509203528 67 211 6.0 8.0 0.00 0.09 0.09 64 1006.2
20260509203027 67 323 4.0 11.0 0.00 0.09 0.09 61 1006.4
20260509202526 66 280 6.0 8.0 0.00 0.09 0.09 63 1006.2
20260509202022 65 229 8.0 10.0 0.00 0.09 0.09 67 1006.5
20260509201517 65 211 3.0 7.0 0.00 0.09 0.09 66 1006.5
20260509201015 66 166 2.0 9.0 0.00 0.09 0.09 65 1006.4
20260509200510 63 280 3.0 6.0 0.00 0.09 0.09 68 1006.5
20260509200007 65 197 3.0 8.0 0.00 0.09 0.09 68 1006.6
20260509195502 63 113 1.0 6.0 0.00 0.09 0.09 69 1006.6
20260509195001 66 230 4.0 7.0 0.00 0.09 0.09 69 1006.7
20260509194457 64 259 1.0 10.0 0.00 0.09 0.09 70 1006.8
20260509193954 62 150 3.0 9.0 0.00 0.09 0.09 70 1006.7
20260509193449 64 234 3.0 8.0 0.00 0.09 0.09 69 1007.0
20260509192945 65 205 2.0 6.0 0.00 0.09 0.09 69 1006.8
20260509192442 65 221 5.0 10.0 0.00 0.09 0.09 68 1006.9
20260509191937 65 180 6.0 13.0 0.00 0.09 0.09 68 1007.0
20260509191432 64 76 0.0 9.0 0.00 0.09 0.09 73 1007.0
20260509190929 62 89 2.0 13.0 0.00 0.09 0.09 73 1007.1
20260509190426 62 185 2.0 7.0 0.00 0.09 0.09 74 1007.0
20260509185924 62 193 1.0 5.0 0.00 0.09 0.09 75 1007.1
20260509185421 64 217 2.0 7.0 0.00 0.09 0.09 71 1007.3
20260509184917 63 224 3.0 17.0 0.00 0.09 0.09 75 1007.4
20260509184415 62 178 3.0 6.0 0.00 0.09 0.09 75 1007.2
20260509183911 63 194 1.0 6.0 0.00 0.09 0.09 74 1007.4
20260509183406 62 33 3.0 11.0 0.00 0.09 0.09 76 1007.5
20260509182902 62 213 3.0 6.0 0.00 0.09 0.09 76 1007.5
20260509182359 62 142 3.0 11.0 0.00 0.09 0.09 77 1007.4
20260509181857 59 233 3.0 7.0 0.00 0.09 0.09 80 1007.5
20260509181354 60 121 5.0 8.0 0.00 0.09 0.09 80 1007.7
20260509180851 61 187 5.0 10.0 0.00 0.09 0.09 76 1007.4
20260509180346 61 220 4.0 7.0 0.00 0.09 0.09 78 1007.5
20260509175844 61 289 4.0 9.0 0.00 0.09 0.09 77 1007.3
20260509175340 61 149 0.0 5.0 0.00 0.09 0.09 79 1007.5
20260509174836 59 123 2.0 4.0 0.00 0.09 0.09 80 1007.4
20260509174332 59 211 2.0 11.0 0.00 0.09 0.09 80 1007.7
20260509173828 59 253 9.0 9.0 0.00 0.09 0.09 80 1007.4
20260509173323 59 97 3.0 3.0 0.00 0.09 0.09 84 1007.4
20260509172820 58 273 4.0 9.0 0.00 0.09 0.09 82 1007.6
20260509172317 58 147 3.0 11.0 0.00 0.09 0.09 84 1007.6
20260509171813 58 218 2.0 8.0 0.00 0.09 0.09 86 1007.6
20260509171308 58 197 2.0 7.0 0.00 0.09 0.09 84 1007.6
20260509170805 59 154 0.0 7.0 0.00 0.09 0.09 84 1007.6
20260509170301 59 303 4.0 6.0 0.00 0.09 0.09 82 1007.4
20260509165800 59 186 3.0 7.0 0.00 0.09 0.09 84 1007.5
20260509165255 60 275 3.0 6.0 0.00 0.09 0.09 83 1007.2
20260509164752 59 96 4.0 7.0 0.00 0.09 0.09 85 1007.3
20260509164248 57 101 4.0 5.0 0.00 0.09 0.09 88 1007.4
20260509163745 57 62 0.0 5.0 0.00 0.09 0.09 87 1007.3
20260509163241 57 146 0.0 3.0 0.00 0.09 0.09 88 1007.4
20260509162739 58 127 2.0 7.0 0.00 0.09 0.09 88 1007.4
20260509162228 58 216 3.0 7.0 0.00 0.09 0.09 88 1007.4
20260509161724 56 188 2.0 7.0 0.00 0.09 0.09 91 1007.3
20260509161220 56 185 3.0 7.0 0.00 0.09 0.09 94 1007.4
20260509160715 56 102 1.0 5.0 0.00 0.09 0.09 98 1007.3
20260509160212 55 222 3.0 5.0 0.00 0.09 0.09 99 1007.2
20260509155707 54 215 0.0 5.0 0.00 0.09 0.09 99 1007.2
20260509155204 53 212 0.0 2.0 0.00 0.09 0.09 99 1007.5
20260509154700 54 224 0.0 3.0 0.00 0.09 0.09 99 1007.3
20260509154157 53 332 3.0 4.0 0.00 0.09 0.09 99 1007.4
20260509153654 53 202 3.0 8.0 0.00 0.09 0.09 99 1007.3
20260509153151 53 209 2.0 3.0 0.00 0.09 0.09 99 1007.4
20260509152646 52 216 1.0 3.0 0.00 0.09 0.09 99 1007.2
20260509152144 52 233 4.0 5.0 0.00 0.09 0.09 99 1007.3
20260509151640 52 50 0.0 3.0 0.00 0.09 0.09 99 1007.3
20260509151137 52 22 0.0 3.0 0.00 0.09 0.09 99 1007.5
20260509150636 52 203 0.0 5.0 0.00 0.09 0.09 99 1007.5
20260509150134 51 211 2.0 5.0 0.00 0.09 0.09 99 1007.6
20260509145630 51 196 4.0 10.0 0.02 0.09 0.09 99 1007.5
20260509145125 51 214 3.0 4.0 0.02 0.09 0.09 99 1007.5
20260509144622 51 298 3.0 5.0 0.02 0.09 0.09 99 1007.4
20260509144119 51 218 2.0 3.0 0.02 0.08 0.08 99 1007.4
20260509143616 51 193 1.0 3.0 0.02 0.08 0.08 99 1007.4
20260509143114 51 269 2.0 4.0 0.02 0.08 0.08 99 1007.5
20260509142608 51 210 2.0 5.0 0.05 0.08 0.08 99 1007.3
20260509142105 51 192 1.0 3.0 0.02 0.07 0.07 99 1007.3
20260509141601 51 59 0.0 3.0 0.00 0.07 0.07 99 1007.2
20260509141058 51 149 0.0 2.0 0.00 0.07 0.07 99 1007.4